Hourly Data Report for May 15, 2006

TORONTO CITY
ONTARIO

43°40'00.000" N
79°24'00.000" W
112.50 m
6158355
71508
XTO

Download Data

Hourly Data (May 2006)
Hourly Data Report for May 15, 2006
TIME
LST
Temp Definition
°C
Dew Point Definition
°C
Rel Hum Definition
%
Precip. Amount Definition
mm

Wind Dir Definition
10's deg

Wind Spd Definition
km/h
Visibility Definition
km
Stn Press Definition
kPa
Hmdx Definition


Wind Chill Definition


Weather Definition


00:00 12.4 9.2 81   LegendMM LegendMM   100.11     LegendNANA
01:00 11.7 8.8 82   LegendMM LegendMM   100.08     LegendNANA
02:00 11.9 9.2 84   LegendMM LegendMM   100.04     LegendNANA
03:00 11.8 9.3 85   LegendMM LegendMM   99.99     LegendNANA
04:00 11.8 9.3 85   LegendMM LegendMM   100.00     LegendNANA
05:00 11.2 9.0 86   LegendMM LegendMM   100.00     LegendNANA
06:00 11.5 9.2 86   LegendMM LegendMM   100.00     LegendNANA
07:00 11.9 9.2 84   LegendMM LegendMM   99.98     LegendNANA
08:00 11.0 8.5 85   LegendMM LegendMM   100.04     LegendNANA
09:00 11.8 8.8 82   LegendMM LegendMM   100.00     LegendNANA
10:00 13.2 9.3 77   LegendMM LegendMM   99.97     LegendNANA
11:00 13.3 8.8 74   LegendMM LegendMM   99.94     LegendNANA
12:00 14.6 9.4 71   LegendMM LegendMM   99.89     LegendNANA
13:00 14.1 9.3 73   LegendMM LegendMM   99.86     LegendNANA
14:00 13.9 9.2 73   LegendMM LegendMM   99.80     LegendNANA
15:00 15.0 9.9 72   LegendMM LegendMM   99.74     LegendNANA
16:00 13.5 8.6 72   LegendMM LegendMM   99.70     LegendNANA
17:00 12.8 8.9 77   LegendMM LegendMM   99.68     LegendNANA
18:00 12.7 9.1 79   LegendMM LegendMM   99.64     LegendNANA
19:00 12.7 10.3 85   LegendMM LegendMM   99.59     LegendNANA
20:00 12.4 10.8 90   LegendMM LegendMM   99.56     LegendNANA
21:00 12.1 11.2 94   LegendMM LegendMM   99.54     LegendNANA
22:00 12.1 11.6 97   LegendMM LegendMM   99.49     LegendNANA
23:00 10.9 10.5 97   LegendMM LegendMM   99.41     LegendNANA

Notes on Data Quality.

Legend

  • E = Estimated
  • M = Missing
  • NA = Not Available*
  • [empty] = Indicates an unobserved value
Date modified: